Location: Newark
(44.3100°N, 0.7769°W)
Time: 16:06:49
(UTC+00:00)

Envisat - Pass Details

Date: 22 November 2019
Orbit: 764 x 766 km, 98.1° (Epoch: 15 December)

Event Time Altitude Azimuth Distance (km) Brightness Sun altitude
Rises 18:43:32 0° 189° (S) 3,219 6.4 -23.5°
Reaches altitude 10° 18:46:01 10° 199° (SSW) 2,297 5.7 -23.9°
Maximum altitude 18:50:36 34° 264° (W) 1,241 4.6 -24.8°
Drops below altitude 10° 18:55:14 10° 329° (NNW) 2,312 5.8 -25.6°
Sets 18:57:45 0° 339° (NNW) 3,243 6.5 -26.0°
